AirNav   Air Wisconsin pilot careers
 
 1365 users online  

UT09 Tavaputs Ranch Airport
Green River, Utah, USA

GOING TO GREEN RIVER?


FAA INFORMATION EFFECTIVE 19 JULY 2018

Location

FAA Identifier: UT09
Lat/Long: 39-28-59.8810N / 110-09-02.5480W
39-28.998017N / 110-09.042467W
39.4833003 / -110.1507078
(estimated)
Elevation: 9200 ft. / 2804 m (estimated)
Variation: 14E (1985)
From city: 35 miles N of GREEN RIVER, UT
Time zone: UTC -6 (UTC -7 during Standard Time)
Zip code: 84520

Airport Operations

Airport use: Private use. Permission required prior to landing
Activation date: 03/1990
Control tower: no
ARTCC: DENVER CENTER
FSS: CEDAR CITY FLIGHT SERVICE STATION
Attendance: UNATNDD
Wind indicator: yes
Segmented circle: no

Nearby radio navigation aids

VOR radial/distance  VOR name  Freq  Var
PUCr090/28.8CARBON VOR/DME115.5014E
MTUr168/40.0MYTON VOR/DME112.7014E

Airport Services

Runway Information

Runway 4/22

Dimensions: 2500 x 34 ft. / 762 x 10 m
Surface: turf
RUNWAY 4  RUNWAY 22
Traffic pattern: leftleft
Obstructions: treestrees

Airport Ownership and Management from official FAA records

Ownership: Privately-owned
Owner: DON WILCOX
P.O. BOX 139
GREEN RIVER, UT 84525
Phone 801-564-3463

Instrument Procedures

There are no published instrument procedures at UT09.

Some nearby airports with instrument procedures:

KPUC - Carbon County Regional Airport/Buck Davis Field (29 nm W)
69V - Huntington Municipal Airport (36 nm W)
U69 - Duchesne Municipal Airport (44 nm N)
KCNY - Canyonlands Field Airport (47 nm SE)
74V - Roosevelt Municipal Airport (48 nm N)
 
Loc | Ops | Rwys | IFR | FBO | Links
Com | Nav | Svcs | Stats | Notes


 
Area around UT09 (Tavaputs Ranch Airport)
 
Road maps at: MapQuest Bing Google
 
Aerial photo
No photo
 
Sectional chart

 
Airport distance calculator
Flying to Tavaputs Ranch Airport? Find the distance to fly.

From to UT09

Sunrise and sunset
Times for 23-Jul-2018
 Local
(UTC-6)
 Zulu
(UTC)
Morning civil twilight05:4211:42
Sunrise06:1312:13
Sunset20:4102:41
Evening civil twilight21:1203:12

Current date and time
Zulu (UTC)  23-Jul-2018 14:06:48
Local (UTC-6)  23-Jul-2018 08:06:48
 
METAR
KPUC 
29nm W 
231353Z AUTO 00000KT 10SM CLR 23/09 A3031 RMK AO2 SLP146 T02330094
KCNY 
47nm SE 
231353Z AUTO 00000KT 10SM CLR 25/08 A3018 RMK AO2 SLP146 T02500078
K74V 
48nm N 
231355Z AUTO 24005KT 10SM SCT100 19/11 A3033 RMK AO2 LTG DSNT E
TAF
KCNY 
47nm SE 
231140Z 2312/2412 VRB04KT P6SM SKC FM231900 26009KT P6SM FEW250 FM240000 32009KT P6SM FEW140 SCT250 FM240300 36008KT P6SM FEW200 FM240600 06006KT P6SM SKC
NOTAMs
Click for the latest NOTAMs
NOTAMs are issued by the DoD/FAA and will open in a separate window not controlled by AirNav.

 

 
 

Would you like to see your business listed on this page?

 If your business provides an interesting product or service to pilots, flight crews, aircraft, or users of the Tavaputs Ranch Airport, you should consider listing it here.  To start the listing process, click on the button below
 
Add a business
 

Other Pages about Tavaputs Ranch Airport

Update a link
 
Copyright © AirNav, LLC. All rights reserved. Privacy Policy  Contact